period_start,C,m1,H,J0,J1,J2,J3,J4,J5,JA,JB,JC,JD,JJ,JK,JN,#
2016-06-11 00:02:12,0.06,0.66,0.00,25.27,29.48,32.05,14.41,45.67,1016.62,2027.97,3278.39,2941.29,3334.05,599.99,591.45,25.91,0000 0000 0000 0000 000000
2016-06-11 00:07:13,0.02,0.66,0.00,25.29,29.50,32.05,14.45,45.92,1016.60,2027.96,3277.91,2940.98,3333.56,600.41,591.89,25.96,0000 0000 0000 0000 000000
2016-06-11 00:12:14,0.04,0.66,0.00,25.30,29.50,32.05,14.27,45.54,1016.58,2027.95,3277.23,2940.47,3333.00,599.99,591.33,26.01,0000 0000 0000 0000 000000
2016-06-11 00:17:16,0.03,0.66,0.00,25.30,29.50,32.05,14.32,45.42,1016.35,2027.91,3276.30,2939.99,3332.25,600.30,591.51,26.06,0000 0000 0000 0000 000000
2016-06-11 00:22:17,0.03,0.66,0.00,25.30,29.51,32.06,14.30,45.82,1016.16,2027.87,3275.64,2939.46,3331.85,599.77,590.95,26.11,0000 0000 0000 0000 000000
2016-06-11 00:27:18,0.02,0.66,0.00,25.29,29.52,32.07,14.36,45.71,1016.13,2027.68,3274.76,2938.97,3331.04,599.86,591.07,26.16,0000 0000 0000 0000 000000
2016-06-11 00:32:20,0.03,0.67,0.00,25.28,29.52,32.06,14.41,45.92,1016.13,2027.60,3273.82,2938.26,3330.37,600.63,591.77,26.21,0000 0000 0000 0000 000000
2016-06-11 00:37:21,0.03,0.67,0.00,25.29,29.52,32.07,14.37,45.91,1015.99,2027.60,3273.03,2937.99,3329.90,599.91,591.03,26.26,0000 0000 0000 0000 000000
2016-06-11 00:42:22,0.06,0.67,0.00,25.30,29.52,32.06,14.37,46.02,1015.67,2027.78,3272.11,2937.28,3329.11,600.04,590.86,26.31,0000 0000 0000 0000 000000
2016-06-11 00:47:23,0.04,0.67,0.00,25.30,29.51,32.07,14.31,45.89,1015.64,2027.84,3271.16,2936.96,3328.47,600.16,591.06,26.36,0000 0000 0000 0000 000000
2016-06-11 00:52:24,0.04,0.68,0.00,25.30,29.50,32.06,14.41,45.80,1015.64,2027.92,3270.23,2936.24,3327.98,599.76,590.65,26.41,0000 0000 0000 0000 000000
2016-06-11 00:57:25,0.03,0.68,0.00,25.32,29.50,32.05,14.34,45.81,1015.41,2027.89,3269.72,2935.99,3327.20,600.05,590.74,26.46,0000 0000 0000 0000 000000
2016-06-11 01:02:26,0.03,0.68,0.00,25.33,29.50,32.03,14.34,45.78,1015.16,2027.93,3268.88,2935.46,3326.91,599.68,590.26,26.51,0000 0000 0000 0000 000000
2016-06-11 01:07:28,0.03,0.68,0.00,25.34,29.50,32.05,14.29,45.59,1015.15,2027.95,3268.05,2935.01,3326.10,600.19,590.70,26.56,0000 0000 0000 0000 000000
2016-06-11 01:12:29,0.03,0.68,0.00,25.35,29.50,32.04,14.27,45.43,1014.99,2027.96,3267.54,2934.64,3325.82,600.01,590.45,26.61,0000 0000 0000 0000 000000
2016-06-11 01:17:31,0.03,0.68,0.00,25.36,29.50,32.06,14.34,45.80,1014.74,2027.94,3266.52,2934.02,3325.03,600.27,590.56,26.66,0000 0000 0000 0000 000000
2016-06-11 01:22:32,0.05,0.69,0.00,25.37,29.50,32.07,14.34,45.82,1014.66,2027.97,3265.68,2933.39,3324.24,600.39,590.54,26.71,0000 0000 0000 0000 000000
2016-06-11 01:27:33,0.01,0.69,0.00,25.37,29.50,32.11,14.27,45.79,1014.66,2027.93,3264.93,2932.98,3323.72,599.46,589.81,26.76,0000 0000 0000 0000 000000
2016-06-11 01:32:35,0.05,0.69,0.00,25.38,29.50,32.12,14.31,45.69,1014.66,2027.95,3264.05,2932.24,3323.00,599.99,590.18,26.81,0000 0000 0000 0000 000000
2016-06-11 01:37:36,0.03,0.69,0.00,25.38,29.50,32.09,14.33,45.98,1014.57,2027.94,3263.16,2931.91,3322.20,599.80,589.90,26.86,0000 0000 0000 0000 000000
2016-06-11 01:42:37,0.05,0.69,0.00,25.39,29.50,32.16,14.43,45.83,1014.39,2027.96,3262.47,2931.14,3321.68,600.04,590.00,26.91,0000 0000 0000 0000 000000
2016-06-11 01:47:39,0.05,0.70,0.00,25.40,29.50,32.14,14.33,45.96,1014.18,2027.91,3261.54,2930.50,3320.69,600.16,589.95,26.96,0000 0000 0000 0000 000000
2016-06-11 01:52:40,0.02,0.70,0.00,25.42,29.50,32.13,14.33,46.21,1013.85,2027.91,3260.73,2929.87,3319.95,599.97,589.62,27.01,0000 0000 0000 0000 000000
2016-06-11 01:57:41,0.05,0.70,0.00,25.43,29.49,32.15,14.39,46.31,1013.69,2027.90,3259.70,2929.06,3319.08,600.00,589.53,27.06,0000 0000 0000 0000 000000
2016-06-11 02:02:43,0.04,0.70,0.00,25.42,29.48,32.14,14.39,46.08,1013.69,2027.90,3258.82,2928.66,3318.41,600.01,589.52,27.11,0000 0000 0000 0000 000000
2016-06-11 02:07:44,0.03,0.71,0.00,25.44,29.47,32.15,14.33,46.15,1013.35,2027.96,3257.97,2928.02,3317.87,599.91,589.43,27.16,0000 0000 0000 0000 000000
2016-06-11 02:12:45,0.04,0.71,0.00,25.45,29.47,32.13,14.33,46.21,1013.20,2027.93,3257.00,2927.55,3317.08,600.35,589.33,27.21,0000 0000 0000 0000 000000
2016-06-11 02:17:47,0.03,0.71,0.00,25.45,29.46,32.08,14.20,46.00,1013.11,2027.96,3256.14,2927.01,3316.38,599.40,588.53,27.26,0000 0000 0000 0000 000000
2016-06-11 02:22:48,0.04,0.71,0.00,25.47,29.45,32.10,14.30,46.27,1013.04,2027.98,3255.27,2926.60,3315.91,599.92,588.93,27.31,0000 0000 0000 0000 000000
2016-06-11 02:27:49,0.03,0.71,0.00,25.47,29.44,32.09,14.33,46.14,1012.90,2027.98,3254.29,2926.01,3315.08,600.04,588.93,27.36,0000 0000 0000 0000 000000
2016-06-11 02:32:50,0.05,0.72,0.00,25.47,29.42,32.12,14.31,46.03,1013.16,2027.98,3253.34,2925.26,3314.29,599.92,588.99,27.41,0000 0000 0000 0000 000000
2016-06-11 02:37:52,0.05,0.72,0.00,25.48,29.42,32.09,14.25,45.68,1013.19,2027.99,3252.23,2924.61,3313.43,600.10,589.11,27.46,0000 0000 0000 0000 000000
2016-06-11 02:42:53,0.03,0.72,0.00,25.50,29.41,32.10,14.31,45.83,1013.18,2027.99,3251.36,2924.01,3312.75,600.06,589.04,27.51,0000 0000 0000 0000 000000
2016-06-11 02:47:54,0.05,0.72,0.00,25.50,29.40,32.07,14.27,45.72,1012.77,2027.99,3250.34,2923.44,3312.02,599.90,588.66,27.56,0000 0000 0000 0000 000000
2016-06-11 02:52:56,0.03,0.73,0.00,25.52,29.40,32.07,14.29,45.97,1012.68,2028.00,3249.51,2922.93,3311.31,600.23,588.93,27.61,0000 0000 0000 0000 000000
2016-06-11 02:57:57,0.05,0.73,0.00,25.55,29.40,32.08,14.22,46.11,1012.33,2028.00,3248.62,2922.14,3310.63,600.02,588.49,27.66,0000 0000 0000 0000 000000
2016-06-11 03:02:58,0.03,0.73,0.00,25.56,29.40,32.06,14.28,46.12,1012.25,2028.01,3247.84,2921.78,3309.84,599.87,588.45,27.71,0000 0000 0000 0000 000000
2016-06-11 03:07:59,0.09,0.73,0.00,25.57,29.40,32.04,14.24,46.03,1012.23,2028.00,3246.50,2920.38,3308.36,599.70,588.03,27.76,0000 0000 0000 0000 000000
2016-06-11 03:13:00,0.04,0.74,0.00,25.60,29.40,32.05,14.30,46.25,1012.21,2028.00,3245.41,2919.76,3307.58,600.39,588.78,27.82,0000 0000 0000 0000 000000
2016-06-11 03:18:01,0.03,0.74,0.00,25.62,29.40,32.04,14.27,46.57,1012.22,2028.00,3244.57,2919.03,3306.90,600.15,588.47,27.87,0000 0000 0000 0000 000000
2016-06-11 03:23:03,0.05,0.74,0.00,25.63,29.40,32.04,14.28,46.29,1012.22,2028.00,3243.73,2918.52,3306.10,599.90,588.21,27.92,0000 0000 0000 0000 000000
2016-06-11 03:28:04,0.04,0.74,0.00,25.65,29.40,32.01,14.24,46.02,1012.22,2028.00,3242.73,2917.94,3305.23,599.84,588.05,27.97,0000 0000 0000 0000 000000
2016-06-11 03:33:06,0.05,0.75,0.00,25.66,29.40,32.03,14.32,46.12,1012.24,2028.01,3241.81,2917.17,3304.61,600.14,588.48,28.02,0000 0000 0000 0000 000000
2016-06-11 03:38:07,0.03,0.75,0.00,25.67,29.40,32.01,14.19,46.13,1012.22,2028.00,3240.80,2916.80,3303.92,599.81,587.99,28.07,0000 0000 0000 0000 000000
2016-06-11 03:43:08,0.04,0.75,0.00,25.68,29.40,32.03,14.30,46.34,1012.20,2028.00,3239.89,2916.07,3303.13,600.00,587.99,28.12,0000 0000 0000 0000 000000
2016-06-11 03:48:10,0.05,0.75,0.00,25.70,29.40,32.02,14.16,45.90,1012.18,2028.00,3238.91,2915.67,3302.31,599.81,587.79,28.17,0000 0000 0000 0000 000000
2016-06-11 03:53:11,0.04,0.75,0.00,25.71,29.40,32.05,14.29,46.23,1011.82,2028.01,3237.85,2914.96,3301.63,600.35,588.14,28.22,0000 0000 0000 0000 000000
2016-06-11 03:58:12,0.05,0.76,0.00,25.71,29.40,32.09,14.28,45.90,1011.74,2028.02,3236.80,2914.16,3300.85,600.02,587.87,28.27,0000 0000 0000 0000 000000
2016-06-11 04:03:13,0.04,0.76,0.00,25.73,29.40,32.06,14.20,45.77,1011.73,2028.08,3235.83,2913.87,3300.05,599.71,587.51,28.32,0000 0000 0000 0000 000000
2016-06-11 04:08:15,0.05,0.76,0.00,25.75,29.40,32.06,14.26,46.29,1011.73,2028.08,3235.01,2913.09,3299.34,600.06,587.78,28.37,0000 0000 0000 0000 000000
2016-06-11 04:13:16,0.05,0.76,0.00,25.75,29.40,32.07,14.29,46.31,1011.67,2028.03,3234.16,2912.48,3298.52,599.59,587.37,28.42,0000 0000 0000 0000 000000
2016-06-11 04:18:17,0.06,0.77,0.00,25.77,29.41,32.07,14.28,46.48,1011.44,2028.03,3232.96,2911.46,3297.38,599.76,587.23,28.47,0000 0000 0000 0000 000000
2016-06-11 04:23:18,0.04,0.77,0.00,25.77,29.42,32.07,14.28,46.33,1011.27,2028.02,3231.89,2910.79,3296.54,599.97,587.48,28.52,0000 0000 0000 0000 000000
2016-06-11 04:28:19,0.04,0.77,0.00,25.79,29.42,32.06,14.29,46.17,1011.29,2028.02,3230.89,2910.05,3295.91,600.02,587.38,28.57,0000 0000 0000 0000 000000
2016-06-11 04:33:20,0.06,0.78,0.00,25.81,29.44,32.07,14.32,46.58,1011.23,2028.02,3229.79,2909.38,3295.00,600.49,587.75,28.62,0000 0000 0000 0000 000000
2016-06-11 04:38:22,0.05,0.78,0.00,25.82,29.45,32.10,14.23,46.14,1010.91,2028.01,3228.64,2908.67,3294.05,600.08,587.03,28.67,0000 0000 0000 0000 000000
2016-06-11 04:43:23,0.08,0.78,0.00,25.84,29.45,32.07,14.18,46.41,1010.76,2028.00,3227.53,2907.54,3292.73,600.15,587.23,28.72,0000 0000 0000 0000 000000
2016-06-11 04:48:24,0.09,0.79,0.00,25.87,29.47,32.06,14.20,46.45,1010.76,2028.00,3225.80,2906.03,3291.16,600.15,587.05,28.77,0000 0000 0000 0000 000000
2016-06-11 04:53:25,0.06,0.79,0.00,25.89,29.47,32.09,14.27,46.48,1010.75,2028.00,3224.47,2904.91,3289.81,600.00,586.95,28.82,0000 0000 0000 0000 000000
2016-06-11 04:58:27,0.06,0.79,0.00,25.92,29.49,32.08,14.25,46.16,1010.76,2028.00,3223.24,2904.01,3288.70,600.01,586.70,28.87,0000 0000 0000 0000 000000
2016-06-11 05:03:28,0.05,0.80,0.00,25.95,29.50,32.11,14.20,46.26,1010.71,2028.00,3222.21,2903.14,3287.83,599.53,586.26,28.92,0000 0000 0000 0000 000000
2016-06-11 05:08:29,0.06,0.80,0.00,25.97,29.52,32.14,14.19,46.50,1010.37,2027.99,3221.10,2902.36,3286.79,599.70,586.25,28.97,0000 0000 0000 0000 000000
2016-06-11 05:13:31,0.05,0.80,0.00,25.99,29.53,32.13,14.25,46.70,1010.33,2027.96,3219.92,2901.37,3285.71,600.43,586.84,29.02,0000 0000 0000 0000 000000
2016-06-11 05:18:32,0.08,0.81,0.00,26.01,29.55,32.15,14.25,46.63,1010.45,2027.97,3218.60,2900.33,3284.43,600.25,586.74,29.07,0000 0000 0000 0000 000000
2016-06-11 05:23:34,0.04,0.81,0.00,26.04,29.57,32.17,14.22,46.38,1010.29,2027.88,3217.30,2899.48,3283.40,599.96,586.27,29.12,0000 0000 0000 0000 000000
2016-06-11 05:28:35,0.06,0.81,0.00,26.08,29.59,32.18,14.26,46.31,1010.29,2027.79,3215.96,2898.66,3282.39,599.92,586.14,29.17,0000 0000 0000 0000 000000
2016-06-11 05:33:36,0.04,0.81,0.00,26.11,29.60,32.18,14.32,46.28,1010.30,2027.66,3214.79,2897.89,3281.36,600.29,586.50,29.22,0000 0000 0000 0000 000000
2016-06-11 05:38:38,0.02,0.81,0.00,26.12,29.62,32.19,14.20,46.28,1010.36,2027.26,3213.72,2897.07,3280.44,600.19,586.42,29.27,0000 0000 0000 0000 000000
2016-06-11 05:43:39,0.05,0.82,0.00,26.16,29.65,32.20,14.17,46.56,1010.34,2027.11,3212.43,2896.20,3279.44,599.73,585.81,29.32,0000 0000 0000 0000 000000
2016-06-11 05:48:40,0.05,0.82,0.00,26.19,29.67,32.22,14.16,46.13,1010.31,2027.13,3211.22,2895.59,3278.53,599.70,585.75,29.37,0000 0000 0000 0000 000000
2016-06-11 05:53:41,0.05,0.82,0.00,26.21,29.70,32.22,14.16,46.07,1010.29,2027.00,3210.01,2894.67,3277.42,599.56,585.54,29.42,0000 0000 0000 0000 000000
2016-06-11 05:58:43,0.05,0.83,0.00,26.25,29.72,32.28,14.20,46.38,1010.28,2027.01,3208.83,2893.85,3276.43,600.27,586.17,29.47,0000 0000 0000 0000 000000
2016-06-11 06:03:44,0.06,0.83,0.00,26.27,29.75,32.27,14.21,46.32,1010.26,2027.00,3207.41,2892.91,3275.35,600.15,586.07,29.52,0000 0000 0000 0000 000000
2016-06-11 06:08:45,0.07,0.83,0.00,26.30,29.77,32.30,14.18,46.17,1010.27,2027.00,3205.97,2891.97,3274.24,599.93,585.72,29.57,0000 0000 0000 0000 000000
2016-06-11 06:13:46,0.06,0.84,0.00,26.34,29.80,32.29,14.14,46.43,1010.27,2026.96,3204.60,2891.04,3273.13,599.51,585.23,29.62,0000 0000 0000 0000 000000
2016-06-11 06:18:48,0.06,0.84,0.00,26.40,29.83,32.32,14.10,46.11,1010.27,2026.91,3203.44,2890.16,3272.07,599.58,585.12,29.67,0000 0000 0000 0000 000000
2016-06-11 06:23:49,0.04,0.84,0.00,26.44,29.86,32.34,14.15,46.13,1010.27,2026.76,3202.25,2889.33,3271.03,599.50,584.96,29.72,0000 0000 0000 0000 000000
2016-06-11 06:28:50,0.03,0.84,0.00,26.49,29.89,32.37,14.17,46.09,1010.27,2026.21,3200.58,2888.35,3269.71,600.08,585.47,29.77,0000 0000 0000 0000 000000
2016-06-11 06:33:51,0.06,0.84,0.00,26.55,29.93,32.41,14.14,46.15,1010.27,2026.05,3199.05,2887.35,3268.59,599.71,585.12,29.82,0000 0000 0000 0000 000000
2016-06-11 06:38:53,0.06,0.85,0.00,26.61,29.96,32.43,14.14,46.07,1010.28,2026.00,3197.86,2886.44,3267.63,600.14,585.33,29.87,0000 0000 0000 0000 000000
2016-06-11 06:43:54,0.06,0.85,0.00,26.67,30.00,32.45,14.16,46.22,1010.27,2026.00,3196.55,2885.50,3266.49,599.99,585.11,29.92,0000 0000 0000 0000 000000
2016-06-11 06:48:55,0.05,0.85,0.00,26.71,30.04,32.50,14.17,46.16,1010.27,2025.99,3195.49,2884.70,3265.46,600.30,585.24,29.97,0000 0000 0000 0000 000000
2016-06-11 06:53:57,0.04,0.86,0.00,26.76,30.07,32.53,14.16,46.21,1010.27,2025.84,3194.23,2883.72,3264.42,600.14,585.12,30.02,0000 0000 0000 0000 000000
2016-06-11 06:58:58,0.01,0.86,0.00,26.83,30.11,32.57,14.15,46.29,1010.27,2025.20,3192.73,2882.74,3263.29,600.06,584.81,30.07,0000 0000 0000 0000 000000
2016-06-11 07:04:00,0.04,0.86,0.00,26.89,30.15,32.59,14.15,46.02,1010.27,2025.03,3191.51,2881.90,3262.30,599.66,584.37,30.12,0000 0000 0000 0000 000000
2016-06-11 07:09:01,0.07,0.86,0.00,26.95,30.20,32.62,14.12,46.26,1010.27,2025.00,3190.20,2880.86,3261.22,599.96,584.47,30.17,0000 0000 0000 0000 000000
2016-06-11 07:14:02,0.06,0.87,0.00,27.01,30.24,32.68,14.18,45.92,1010.20,2025.00,3188.67,2879.97,3259.99,599.93,584.26,30.22,0000 0000 0000 0000 000000
2016-06-11 07:19:03,0.06,0.87,0.00,27.07,30.28,32.71,14.16,46.03,1009.96,2025.00,3187.50,2879.10,3258.98,600.00,584.10,30.27,0000 0000 0000 0000 000000
2016-06-11 07:24:04,0.03,0.87,0.00,27.14,30.33,32.76,14.15,46.35,1009.80,2024.80,3186.17,2878.24,3257.84,600.10,583.98,30.32,0000 0000 0000 0000 000000
2016-06-11 07:29:06,0.03,0.87,0.00,27.21,30.37,32.80,14.13,46.43,1009.78,2024.16,3184.86,2877.09,3256.31,600.29,584.02,30.37,0000 0000 0000 0000 000000
2016-06-11 07:34:07,0.06,0.88,0.00,27.28,30.42,32.83,14.11,46.08,1009.78,2024.01,3183.52,2876.09,3255.28,600.22,583.89,30.42,0000 0000 0000 0000 000000
2016-06-11 07:39:08,0.06,0.88,0.00,27.34,30.47,32.87,14.11,46.02,1009.78,2024.00,3182.04,2875.10,3254.09,599.94,583.46,30.47,0000 0000 0000 0000 000000
2016-06-11 07:44:10,0.08,0.88,0.00,27.41,30.51,32.93,14.05,46.20,1009.77,2023.98,3180.72,2874.09,3252.85,599.93,583.21,30.52,0000 0000 0000 0000 000000
2016-06-11 07:49:11,0.04,0.89,0.00,27.46,30.56,32.96,14.13,46.45,1009.78,2023.80,3179.38,2873.07,3251.66,600.01,583.26,30.57,0000 0000 0000 0000 000000
2016-06-11 07:54:12,0.02,0.89,0.00,27.52,30.61,33.02,14.05,46.08,1009.78,2023.31,3177.95,2872.13,3250.57,600.03,583.18,30.63,0000 0000 0000 0000 000000
2016-06-11 07:59:14,0.05,0.89,0.00,27.59,30.66,33.07,14.11,46.10,1009.78,2023.02,3176.64,2871.22,3249.46,599.78,582.75,30.68,0000 0000 0000 0000 000000
2016-06-11 08:04:15,0.06,0.89,0.00,27.66,30.72,33.12,14.11,46.30,1009.78,2022.99,3175.46,2870.28,3248.39,600.23,583.02,30.73,0000 0000 0000 0000 000000
2016-06-11 08:09:16,0.07,0.90,0.00,27.72,30.77,33.17,14.09,46.17,1009.78,2022.95,3173.99,2869.26,3247.11,599.98,582.76,30.78,0000 0000 0000 0000 000000
2016-06-11 08:14:17,0.03,0.90,0.00,27.79,30.82,33.23,14.08,45.95,1009.78,2022.59,3172.60,2868.22,3245.84,599.90,582.56,30.83,0000 0000 0000 0000 000000
2016-06-11 08:19:19,0.03,0.90,0.00,27.86,30.88,33.28,14.12,45.92,1009.78,2022.11,3171.18,2867.26,3244.71,600.25,582.75,30.88,0000 0000 0000 0000 000000
2016-06-11 08:24:20,0.06,0.90,0.00,27.91,30.93,33.34,14.09,46.07,1009.78,2022.00,3169.98,2866.25,3243.57,600.23,582.70,30.93,0000 0000 0000 0000 000000
2016-06-11 08:29:21,0.07,0.91,0.00,27.97,30.99,33.38,14.12,45.95,1009.77,2021.99,3168.60,2865.29,3242.36,599.94,582.19,30.98,0000 0000 0000 0000 000000
2016-06-11 08:34:23,0.02,0.91,0.00,28.04,31.04,33.44,14.14,46.08,1009.77,2021.57,3167.23,2864.17,3241.07,600.15,582.20,31.03,0000 0000 0000 0000 000000
2016-06-11 08:39:24,0.04,0.91,0.00,28.09,31.10,33.50,14.09,45.95,1009.74,2021.07,3165.72,2863.09,3239.78,600.04,582.16,31.08,0000 0000 0000 0000 000000
2016-06-11 08:44:26,0.06,0.91,0.00,28.16,31.15,33.56,14.05,45.78,1009.73,2021.00,3164.38,2862.08,3238.64,600.29,582.14,31.13,0000 0000 0000 0000 000000
2016-06-11 08:49:27,0.06,0.92,0.00,28.21,31.21,33.61,14.07,45.80,1009.73,2020.95,3163.11,2861.07,3237.40,600.16,581.89,31.18,0000 0000 0000 0000 000000
2016-06-11 08:54:29,0.03,0.92,0.00,28.27,31.27,33.66,14.04,45.73,1009.76,2020.66,3161.69,2860.05,3236.19,600.11,581.82,31.23,0000 0000 0000 0000 000000
2016-06-11 08:59:30,0.03,0.92,0.00,28.32,31.32,33.72,14.06,45.73,1009.78,2020.06,3160.36,2859.07,3234.97,600.50,581.97,31.28,0000 0000 0000 0000 000000
2016-06-11 09:04:31,0.08,0.92,0.00,28.37,31.38,33.78,14.03,45.92,1009.78,2020.00,3158.93,2857.99,3233.72,599.59,581.12,31.33,0000 0000 0000 0000 000000
2016-06-11 09:09:33,0.07,0.93,0.00,28.41,31.43,33.84,14.00,45.77,1009.78,2019.98,3157.53,2856.94,3232.50,599.93,581.28,31.38,0000 0000 0000 0000 000000
2016-06-11 09:14:34,0.03,0.93,0.00,28.46,31.48,33.90,13.97,45.49,1009.78,2019.69,3156.04,2855.90,3231.29,599.60,581.13,31.43,0000 0000 0000 0000 000000
2016-06-11 09:19:35,0.03,0.93,0.00,28.49,31.54,33.95,14.00,45.48,1009.78,2019.09,3154.61,2854.81,3229.84,599.66,580.83,31.48,0000 0000 0000 0000 000000
2016-06-11 09:24:37,0.08,0.93,0.00,28.53,31.59,34.00,14.01,45.75,1009.78,2019.00,3153.08,2853.73,3228.57,599.94,581.11,31.53,0000 0000 0000 0000 000000
2016-06-11 09:29:38,0.07,0.94,0.00,28.58,31.64,34.06,14.09,45.62,1009.78,2018.99,3151.60,2852.71,3227.31,600.50,581.55,31.58,0000 0000 0000 0000 000000
2016-06-11 09:34:39,0.06,0.94,0.00,28.61,31.69,34.10,14.08,45.48,1009.78,2018.93,3150.07,2851.67,3226.04,600.14,581.23,31.63,0000 0000 0000 0000 000000
2016-06-11 09:39:40,0.02,0.94,0.00,28.65,31.74,34.16,13.99,45.41,1009.79,2018.47,3148.60,2850.62,3224.76,600.09,581.11,31.68,0000 0000 0000 0000 000000
2016-06-11 09:44:41,0.05,0.94,0.00,28.67,31.79,34.21,14.04,45.30,1009.81,2018.04,3147.17,2849.54,3223.50,600.01,580.96,31.73,0000 0000 0000 0000 000000
2016-06-11 09:49:43,0.07,0.95,0.00,28.69,31.83,34.25,13.97,45.28,1009.85,2018.00,3145.72,2848.60,3222.29,599.99,580.90,31.78,0000 0000 0000 0000 000000
2016-06-11 09:54:44,0.06,0.95,0.00,28.72,31.88,34.30,13.98,45.45,1009.99,2017.99,3144.40,2847.61,3221.06,599.77,580.61,31.83,0000 0000 0000 0000 000000
2016-06-11 09:59:45,0.07,0.96,0.00,28.73,31.92,34.36,13.98,45.45,1010.27,2017.97,3142.93,2846.56,3219.89,600.03,581.08,31.88,0000 0000 0000 0000 000000
2016-06-11 10:04:46,0.03,0.96,0.00,28.76,31.96,34.40,14.05,45.66,1010.47,2017.64,3141.45,2845.61,3218.65,599.92,580.97,31.93,0000 0000 0000 0000 000000
2016-06-11 10:09:48,0.04,0.96,0.00,28.78,32.01,34.43,13.95,45.51,1010.62,2017.20,3139.85,2844.64,3217.46,599.72,580.89,31.98,0000 0000 0000 0000 000000
2016-06-11 10:14:49,0.06,0.96,0.00,28.81,32.05,34.46,13.98,45.45,1010.72,2017.02,3138.20,2843.63,3216.20,600.06,581.15,32.03,0000 0000 0000 0000 000000
2016-06-11 10:19:51,0.09,0.97,0.00,28.84,32.09,34.52,14.06,45.46,1010.77,2017.00,3136.42,2842.53,3214.76,599.98,581.12,32.08,0000 0000 0000 0000 000000
2016-06-11 10:24:52,0.08,0.97,0.00,28.85,32.12,34.57,14.12,45.34,1010.88,2017.00,3134.74,2841.38,3213.46,600.08,581.28,32.13,0000 0000 0000 0000 000000
2016-06-11 10:29:53,0.07,0.97,0.00,28.87,32.16,34.59,14.05,45.33,1011.23,2016.98,3133.14,2840.38,3212.15,599.72,581.08,32.18,0000 0000 0000 0000 000000
2016-06-11 10:34:55,0.07,0.98,0.00,28.89,32.20,34.63,14.04,45.58,1011.24,2016.96,3131.47,2839.32,3210.80,600.02,581.23,32.23,0000 0000 0000 0000 000000
2016-06-11 10:39:56,0.08,0.98,0.00,28.92,32.23,34.66,14.02,45.38,1011.24,2016.85,3129.42,2838.03,3209.30,599.77,581.03,32.28,0000 0000 0000 0000 000000
2016-06-11 10:44:57,0.04,0.99,0.00,28.96,32.27,34.72,14.14,45.49,1011.24,2016.41,3127.49,2836.80,3207.81,600.06,581.24,32.33,0000 0000 0000 0000 000000
2016-06-11 10:49:59,0.07,0.99,0.00,28.98,32.31,34.74,14.05,45.49,1011.28,2016.06,3125.54,2835.51,3206.29,599.97,581.17,32.38,0000 0000 0000 0000 000000
2016-06-11 10:55:00,0.08,0.99,0.00,29.02,32.34,34.76,14.02,45.40,1011.67,2016.01,3123.70,2834.28,3204.82,599.91,581.34,32.43,0000 0000 0000 0000 000000
2016-06-11 11:00:01,0.09,1.00,0.00,29.03,32.37,34.79,14.03,45.45,1011.73,2016.00,3121.80,2832.98,3203.34,599.85,581.24,32.48,0000 0000 0000 0000 000000
2016-06-11 11:05:03,0.09,1.00,0.00,29.04,32.41,34.82,14.12,45.41,1011.74,2016.00,3119.97,2831.79,3201.94,599.90,581.12,32.54,0000 0000 0000 0000 000000
2016-06-11 11:10:04,0.08,1.01,0.00,29.07,32.44,34.86,14.07,45.43,1011.77,2015.98,3118.31,2830.62,3200.58,599.89,581.21,32.59,0000 0000 0000 0000 000000
2016-06-11 11:15:05,0.06,1.01,0.00,29.09,32.47,34.89,14.02,45.40,1011.75,2015.86,3116.73,2829.56,3199.33,600.14,581.44,32.64,0000 0000 0000 0000 000000
2016-06-11 11:20:06,0.00,1.01,0.00,29.11,32.50,34.94,14.02,45.28,1012.01,2015.27,3115.25,2828.46,3198.28,599.98,581.31,32.69,0000 0000 0000 0000 000000
2016-06-11 11:25:07,0.04,1.01,0.00,29.12,32.53,34.97,14.01,45.18,1011.81,2015.02,3114.12,2827.67,3197.31,600.19,581.37,32.74,0000 0000 0000 0000 000000
2016-06-11 11:30:08,0.01,1.02,0.00,29.12,32.55,35.00,14.17,45.40,1011.76,2014.89,3113.84,2826.93,3196.74,600.32,581.60,32.79,0000 0000 0000 0000 000000
2016-06-11 11:35:09,0.01,1.02,0.00,29.14,32.58,35.03,14.16,45.47,1011.77,2014.41,3112.78,2826.08,3195.86,599.97,581.16,32.84,0000 0000 0000 0000 000000
2016-06-11 11:40:10,0.04,1.02,0.00,29.15,32.60,35.06,14.00,45.13,1011.80,2014.10,3111.45,2825.36,3194.90,599.79,580.92,32.89,0000 0000 0000 0000 000000
2016-06-11 11:45:12,0.05,1.02,0.00,29.17,32.62,35.08,14.06,45.15,1011.86,2014.02,3110.18,2824.58,3193.99,599.76,580.79,32.94,0000 0000 0000 0000 000000
2016-06-11 11:50:13,0.06,1.02,0.00,29.16,32.65,35.10,14.03,44.98,1012.07,2014.00,3108.87,2823.75,3192.95,599.74,580.99,32.99,0000 0000 0000 0000 000000
2016-06-11 11:55:14,0.05,1.03,0.00,29.16,32.67,35.12,13.99,45.10,1012.00,2014.00,3107.61,2822.96,3192.00,599.69,580.92,33.04,0000 0000 0000 0000 000000
2016-06-11 12:00:15,0.04,1.03,0.00,29.17,32.69,35.13,14.09,45.24,1011.85,2013.96,3107.04,2822.14,3191.19,600.10,581.15,33.09,0000 0000 0000 0000 000000
2016-06-11 12:05:17,0.07,1.03,0.00,29.17,32.71,35.16,14.09,45.17,1012.05,2013.54,3105.14,2820.92,3189.77,599.60,580.96,33.14,0000 0000 0000 0000 000000
2016-06-11 12:10:18,0.03,1.03,0.00,29.18,32.72,35.17,14.06,45.09,1012.25,2013.10,3103.04,2819.96,3188.44,600.15,581.44,33.19,0000 0000 0000 0000 000000
2016-06-11 12:15:19,0.04,1.04,0.00,29.18,32.75,35.19,14.08,45.09,1012.56,2013.03,3102.02,2819.16,3187.77,599.93,581.46,33.24,0000 0000 0000 0000 000000
2016-06-11 12:20:20,0.04,1.04,0.00,29.19,32.76,35.19,14.07,45.31,1012.71,2013.01,3101.06,2818.74,3187.01,600.49,581.84,33.29,0000 0000 0000 0000 000000
2016-06-11 12:25:21,0.04,1.04,0.00,29.19,32.77,35.22,14.12,45.18,1012.72,2013.00,3100.01,2818.04,3186.20,600.11,581.73,33.34,0000 0000 0000 0000 000000
2016-06-11 12:30:23,0.05,1.04,0.00,29.19,32.79,35.24,14.04,45.22,1012.71,2013.00,3099.03,2817.51,3185.64,600.07,581.64,33.39,0000 0000 0000 0000 000000
2016-06-11 12:35:24,0.03,1.05,0.00,29.19,32.80,35.24,14.10,45.41,1012.71,2013.00,3098.04,2816.99,3184.95,599.85,581.29,33.44,0000 0000 0000 0000 000000
2016-06-11 12:40:26,0.05,1.05,0.00,29.20,32.82,35.27,14.08,45.13,1012.94,2013.00,3097.12,2816.28,3184.15,600.01,581.72,33.50,0000 0000 0000 0000 000000
2016-06-11 12:45:27,0.03,1.05,0.00,29.19,32.82,35.27,14.10,45.18,1013.21,2013.00,3096.34,2815.96,3183.64,600.27,582.11,33.55,0000 0000 0000 0000 000000
2016-06-11 12:50:28,0.05,1.05,0.00,29.18,32.84,35.29,14.09,45.11,1013.30,2013.00,3095.37,2815.21,3182.94,599.89,581.80,33.60,0000 0000 0000 0000 000000
2016-06-11 12:55:30,0.03,1.05,0.00,29.18,32.85,35.30,14.05,45.11,1013.23,2013.00,3094.49,2814.87,3182.20,599.76,581.65,33.65,0000 0000 0000 0000 000000